EW8356 Weather Reports


Display with metric or nautical units.
time (UTC)temp
F
wind
direction
speed
MPH
gust
MPH
rain 1hr
in
rain 24hr
in
rain mn
in
humidity
%
barometer
mb
20260507034031 56 25 1.0 4.0 0.00 0.00 0.00 87 1014.2
20260507033533 56 5 1.0 6.0 0.00 0.00 0.00 87 1014.1
20260507033048 56 198 3.0 6.0 0.00 0.00 0.00 87 1014.1
20260507032534 55 201 4.0 8.0 0.00 0.00 0.00 87 1014.1
20260507032032 55 360 4.0 8.0 0.00 0.00 0.00 87 1014.1
20260507031547 55 205 4.0 8.0 0.00 0.00 0.00 88 1014.0
20260507031032 56 205 6.0 8.0 0.00 0.00 0.00 88 1014.1
20260507030532 57 190 4.0 6.0 0.00 0.00 0.00 89 1014.1
20260507030050 57 205 1.0 3.0 0.00 0.00 0.00 89 1014.0
20260507025530 57 44 0.0 2.0 0.00 0.01 0.00 89 1013.9
20260507025032 57 0 1.0 8.0 0.00 0.01 0.00 89 1013.9
20260507024549 57 0 1.0 8.0 0.00 0.01 0.00 89 1013.9
20260507024032 57 173 4.0 8.0 0.00 0.00 0.00 89 1013.9
20260507023531 57 166 3.0 8.0 0.00 0.00 0.00 89 1014.0
20260507023047 57 154 4.0 9.0 0.00 0.00 0.00 89 1013.8
20260507022532 57 112 5.0 9.0 0.00 0.00 0.00 89 1013.8
20260507022032 58 102 3.0 8.0 0.00 0.00 0.00 89 1013.8
20260507021547 57 102 4.0 9.0 0.00 0.00 0.00 89 1013.8
20260507021034 58 101 5.0 9.0 0.00 0.00 0.00 88 1013.8
20260507020532 58 87 3.0 7.0 0.00 0.00 0.00 89 1013.7
20260507020046 58 114 1.0 4.0 0.00 0.00 0.00 88 1013.7
20260507015534 58 0 1.0 4.0 0.00 0.01 0.00 88 1013.8
20260507015032 58 144 1.0 6.0 0.00 0.01 0.00 88 1013.7
20260507014554 58 134 2.0 8.0 0.00 0.01 0.00 88 1013.6
20260507014033 58 106 3.0 9.0 0.00 0.01 0.00 88 1013.5
20260507013531 58 99 4.0 10.0 0.00 0.01 0.00 88 1013.5
20260507013101 58 101 5.0 11.0 0.00 0.01 0.00 87 1013.5
20260507012531 58 80 6.0 11.0 0.00 0.01 0.00 87 1013.5
20260507012032 59 89 5.0 8.0 0.00 0.01 0.00 87 1013.5
20260507011548 58 90 3.0 6.0 0.00 0.01 0.00 86 1013.6
20260507011033 58 93 2.0 3.0 0.00 0.01 0.00 86 1013.6
20260507010532 58 100 1.0 3.0 0.00 0.01 0.00 86 1013.6
20260507010056 59 113 0.0 3.0 0.00 0.01 0.00 86 1013.6
20260507005532 59 0 0.0 3.0 0.00 0.01 0.00 86 1013.6
20260507005031 59 113 0.0 3.0 0.00 0.01 0.00 86 1013.6
20260507004547 59 112 1.0 3.0 0.00 0.01 0.00 86 1013.6
20260507004031 59 0 1.0 3.0 0.00 0.01 0.00 85 1013.7
20260507003533 59 0 0.0 2.0 0.00 0.01 0.00 85 1013.6
20260507003042 59 0 0.0 4.0 0.00 0.01 0.00 85 1013.7
20260507002531 59 126 2.0 7.0 0.00 0.01 0.00 84 1013.7
20260507002031 59 122 3.0 9.0 0.00 0.01 0.00 85 1013.6
20260507001552 59 115 5.0 9.0 0.00 0.01 0.00 84 1013.7
20260507001030 60 91 3.0 4.0 0.00 0.01 0.00 84 1013.7
20260507000532 60 97 1.0 4.0 0.00 0.01 0.00 83 1013.7
20260507000049 60 116 1.0 4.0 0.00 0.01 0.00 83 1013.8
20260506235531 60 107 2.0 4.0 0.00 0.01 0.00 82 1013.8
20260506235031 60 101 2.0 4.0 0.00 0.01 0.00 82 1013.8
20260506234548 60 97 1.0 3.0 0.00 0.01 0.00 82 1013.8
20260506234031 60 92 1.0 4.0 0.00 0.01 0.00 81 1013.7
20260506233532 60 97 1.0 4.0 0.00 0.01 0.00 81 1013.8
20260506233100 60 125 0.0 4.0 0.00 0.01 0.00 81 1013.8
20260506232531 60 0 1.0 6.0 0.00 0.01 0.00 81 1013.7
20260506232031 60 138 2.0 6.0 0.00 0.01 0.00 81 1013.7
20260506231546 60 90 4.0 6.0 0.00 0.01 0.00 80 1013.7
20260506231031 60 123 2.0 7.0 0.00 0.01 0.00 80 1013.9
20260506230531 61 113 2.0 7.0 0.00 0.01 0.00 79 1013.9
20260506225533 61 105 1.0 4.0 0.00 0.01 0.00 79 1013.9
20260506225031 61 104 2.0 4.0 0.00 0.01 0.00 79 1013.9
20260506224549 61 121 2.0 4.0 0.00 0.01 0.00 79 1013.9
20260506224031 61 111 2.0 4.0 0.00 0.01 0.00 78 1014.0
20260506223534 61 117 2.0 6.0 0.00 0.01 0.00 78 1014.1
20260506223050 61 115 2.0 6.0 0.00 0.01 0.00 77 1014.0
20260506222532 61 121 1.0 3.0 0.00 0.01 0.00 77 1014.0
20260506222035 61 83 1.0 3.0 0.00 0.01 0.00 77 1014.1
20260506221558 61 118 0.0 4.0 0.00 0.01 0.00 77 1014.1
20260506221030 61 0 0.0 6.0 0.00 0.01 0.00 77 1014.0
20260506220534 61 82 3.0 6.0 0.00 0.01 0.00 76 1014.0
20260506220048 61 92 2.0 6.0 0.00 0.01 0.00 76 1013.9
20260506215531 61 93 3.0 6.0 0.00 0.01 0.01 76 1014.0
20260506215031 61 120 2.0 5.0 0.00 0.01 0.01 76 1014.0
20260506214546 61 155 1.0 5.0 0.00 0.01 0.01 77 1014.0
20260506214030 61 155 3.0 10.0 0.00 0.01 0.01 77 1013.9
20260506213531 61 130 5.0 10.0 0.00 0.01 0.01 77 1013.9
20260506213048 61 142 4.0 15.0 0.00 0.01 0.01 77 1013.9
20260506212531 61 113 7.0 18.0 0.00 0.01 0.01 77 1013.7
20260506212031 61 117 10.0 18.0 0.00 0.01 0.01 77 1013.6
20260506211604 61 115 12.0 18.0 0.00 0.01 0.01 77 1013.6
20260506211031 61 119 11.0 20.0 0.00 0.01 0.01 77 1013.7
20260506210531 61 114 10.0 20.0 0.00 0.01 0.01 77 1013.9
20260506210049 61 108 11.0 19.0 0.00 0.01 0.01 78 1013.9
20260506205535 61 99 9.0 19.0 0.00 0.01 0.01 80 1013.9
20260506205030 61 110 12.0 19.0 0.00 0.01 0.01 81 1013.9
20260506204548 60 123 8.0 12.0 0.00 0.01 0.01 82 1013.8
20260506204031 60 105 7.0 10.0 0.00 0.01 0.01 82 1013.9
20260506203531 60 106 5.0 10.0 0.00 0.01 0.01 82 1013.9
20260506203048 60 114 6.0 10.0 0.00 0.01 0.01 82 1013.8
20260506202531 61 86 5.0 10.0 0.00 0.01 0.01 81 1013.7
20260506202031 61 101 6.0 10.0 0.00 0.01 0.01 80 1013.6
20260506201549 61 110 5.0 11.0 0.00 0.01 0.01 78 1013.6
20260506201032 62 117 7.0 11.0 0.00 0.01 0.01 78 1013.6
20260506200531 61 125 6.0 10.0 0.00 0.01 0.01 77 1013.5
20260506200052 61 110 5.0 15.0 0.00 0.01 0.01 77 1013.4
20260506195531 62 119 10.0 15.0 0.00 0.01 0.01 77 1013.5
20260506195032 62 118 6.0 15.0 0.00 0.01 0.01 77 1013.4
20260506194553 62 113 7.0 15.0 0.00 0.01 0.01 77 1013.3
20260506194031 62 114 8.0 15.0 0.00 0.01 0.01 77 1013.3
20260506193530 61 125 8.0 13.0 0.00 0.01 0.01 77 1013.2
20260506193047 61 111 7.0 13.0 0.00 0.01 0.01 77 1013.2
20260506192530 61 117 8.0 12.0 0.00 0.01 0.01 77 1013.2
20260506192030 61 112 7.0 12.0 0.00 0.01 0.01 76 1013.2
20260506191546 61 106 6.0 16.0 0.00 0.01 0.01 76 1013.1
20260506191031 62 118 10.0 17.0 0.00 0.01 0.01 76 1013.1
20260506190532 62 119 12.0 17.0 0.00 0.01 0.01 76 1013.0
20260506190047 62 117 10.0 15.0 0.00 0.01 0.01 76 1012.9
20260506185530 62 107 8.0 14.0 0.00 0.01 0.01 75 1012.9
20260506185031 62 113 5.0 9.0 0.00 0.01 0.01 75 1012.9
20260506184549 62 112 5.0 13.0 0.00 0.01 0.01 75 1012.9
20260506184032 62 111 6.0 15.0 0.00 0.01 0.01 74 1012.8
20260506183531 62 110 7.0 18.0 0.00 0.01 0.01 74 1012.7
20260506183041 62 125 10.0 19.0 0.00 0.01 0.01 74 1012.6
20260506182530 62 112 10.0 19.0 0.00 0.01 0.01 74 1012.5
20260506182031 62 128 12.0 19.0 0.00 0.01 0.01 74 1012.3
20260506181548 62 110 12.0 21.0 0.00 0.01 0.01 74 1012.3
20260506181031 62 113 12.0 21.0 0.00 0.01 0.01 74 1012.4
20260506180531 62 109 12.0 23.0 0.00 0.01 0.01 73 1012.4
20260506180049 62 127 12.0 23.0 0.00 0.01 0.01 73 1012.4
20260506175530 62 121 12.0 23.0 0.00 0.01 0.01 73 1012.4
20260506175030 62 130 12.0 23.0 0.00 0.01 0.01 73 1012.3
20260506174548 62 122 10.0 21.0 0.00 0.01 0.01 73 1012.3
20260506174031 63 143 11.0 20.0 0.00 0.01 0.01 72 1012.3
20260506173531 63 121 11.0 19.0 0.00 0.01 0.01 73 1012.3
20260506173100 63 107 10.0 18.0 0.00 0.01 0.01 72 1012.2
20260506172531 63 103 9.0 26.0 0.00 0.01 0.01 72 1012.3
20260506172031 63 115 14.0 26.0 0.00 0.01 0.01 72 1012.3
20260506171551 63 109 13.0 22.0 0.00 0.01 0.01 72 1012.4
20260506171031 63 126 13.0 22.0 0.00 0.01 0.01 71 1012.3
20260506170531 64 134 14.0 23.0 0.00 0.01 0.01 72 1012.2
20260506170100 64 113 11.0 23.0 0.00 0.01 0.01 73 1012.2
20260506165532 64 111 12.0 22.0 0.00 0.01 0.01 73 1012.2
20260506165031 64 130 12.0 20.0 0.00 0.01 0.01 73 1012.3
20260506164606 64 121 12.0 20.0 0.00 0.01 0.01 73 1012.3
20260506164030 64 124 9.0 23.0 0.00 0.01 0.01 73 1012.3
20260506163530 64 124 13.0 23.0 0.00 0.01 0.01 72 1012.3
20260506163047 65 138 12.0 23.0 0.00 0.01 0.01 71 1012.4
20260506162530 65 106 13.0 23.0 0.00 0.01 0.01 71 1012.4
20260506162030 65 121 14.0 21.0 0.00 0.01 0.01 70 1012.3
20260506161551 65 128 10.0 24.0 0.00 0.01 0.01 70 1012.3
20260506161032 66 117 13.0 26.0 0.00 0.01 0.01 69 1012.3
20260506160531 66 118 15.0 26.0 0.00 0.01 0.01 69 1012.1
20260506160055 66 116 9.0 23.0 0.00 0.01 0.01 70 1012.3
20260506155532 66 128 11.0 26.0 0.00 0.01 0.01 69 1012.2
20260506155031 66 131 11.0 29.0 0.00 0.01 0.01 68 1012.2
20260506154554 66 134 14.0 29.0 0.00 0.01 0.01 68 1012.3
20260506154032 66 120 15.0 26.0 0.00 0.01 0.01 69 1012.2
20260506153531 66 111 13.0 23.0 0.00 0.01 0.01 69 1012.3
20260506153042 66 104 14.0 24.0 0.00 0.01 0.01 69 1012.3
20260506152534 66 114 14.0 24.0 0.00 0.01 0.01 69 1012.3
20260506152031 66 108 12.0 26.0 0.00 0.01 0.01 68 1012.3
20260506151548 66 107 15.0 26.0 0.00 0.01 0.01 68 1012.2
20260506151032 66 117 12.0 26.0 0.00 0.01 0.01 69 1012.3
20260506150534 66 119 13.0 26.0 0.00 0.01 0.01 69 1012.3
20260506150048 67 119 16.0 26.0 0.00 0.01 0.01 68 1012.3
20260506145531 67 115 13.0 21.0 0.00 0.01 0.01 69 1012.2
20260506145031 66 132 12.0 18.0 0.00 0.01 0.01 70 1012.2
20260506144548 66 120 9.0 17.0 0.00 0.01 0.01 71 1012.2
20260506144032 66 128 9.0 17.0 0.00 0.01 0.01 70 1012.3
20260506143531 65 121 10.0 17.0 0.00 0.01 0.01 71 1012.4
20260506143046 65 130 9.0 21.0 0.00 0.01 0.01 71 1012.4
20260506142534 65 129 10.0 21.0 0.00 0.01 0.01 71 1012.4
20260506142031 65 113 9.0 19.0 0.00 0.01 0.01 73 1012.3
20260506141603 65 126 10.0 19.0 0.00 0.01 0.01 74 1012.3
20260506141034 64 117 13.0 19.0 0.00 0.01 0.01 73 1012.4
20260506140531 64 115 11.0 20.0 0.00 0.01 0.01 74 1012.4
20260506140052 64 113 9.0 21.0 0.00 0.01 0.01 73 1012.3
20260506135530 64 130 11.0 25.0 0.00 0.01 0.01 72 1012.5
20260506135033 65 117 14.0 25.0 0.00 0.01 0.01 70 1012.5
20260506134549 66 129 7.0 19.0 0.00 0.01 0.01 69 1012.5
20260506134034 66 117 9.0 21.0 0.00 0.01 0.01 69 1012.5
20260506133532 66 107 13.0 21.0 0.00 0.01 0.01 68 1012.7
20260506133048 67 139 10.0 22.0 0.00 0.01 0.01 66 1012.8
20260506132530 67 113 11.0 22.0 0.00 0.01 0.01 67 1012.7
20260506132030 67 121 13.0 22.0 0.00 0.01 0.01 66 1012.7
20260506131547 66 111 11.0 21.0 0.00 0.01 0.01 67 1012.8
20260506131031 66 115 12.0 22.0 0.00 0.01 0.01 67 1012.8
20260506130531 67 122 11.0 22.0 0.00 0.01 0.01 66 1012.9
20260506130048 67 119 13.0 20.0 0.00 0.01 0.01 65 1013.0
20260506125531 67 146 10.0 21.0 0.00 0.01 0.01 67 1012.9
20260506125033 66 142 10.0 21.0 0.00 0.01 0.01 68 1013.0
20260506124549 65 117 13.0 23.0 0.00 0.01 0.01 67 1013.1
20260506124032 65 105 10.0 26.0 0.00 0.01 0.01 70 1013.1
20260506123531 65 126 12.0 26.0 0.00 0.01 0.01 70 1013.2
20260506123052 65 107 12.0 25.0 0.00 0.01 0.01 69 1013.2
20260506122531 65 121 9.0 20.0 0.00 0.01 0.01 71 1013.1
20260506122030 64 124 11.0 23.0 0.00 0.01 0.01 71 1013.2
20260506121559 64 124 12.0 23.0 0.00 0.01 0.01 72 1013.1
20260506121031 64 138 13.0 25.0 0.00 0.01 0.01 71 1013.0
20260506120531 64 132 13.0 28.0 0.00 0.01 0.01 71 1013.1
20260506120115 64 109 16.0 30.0 0.00 0.01 0.01 70 1013.1
20260506115532 65 110 12.0 30.0 0.00 0.01 0.01 70 1013.1
20260506115032 65 117 12.0 27.0 0.00 0.01 0.01 70 1013.0
20260506114548 65 123 15.0 27.0 0.00 0.01 0.01 70 1013.0
20260506114031 64 110 12.0 26.0 0.00 0.01 0.01 70 1013.1
20260506113530 64 113 14.0 26.0 0.00 0.01 0.01 70 1013.2
20260506113047 63 123 13.0 28.0 0.00 0.01 0.01 70 1013.2
20260506112532 63 119 13.0 28.0 0.00 0.01 0.01 69 1013.2
20260506112031 64 113 12.0 27.0 0.00 0.01 0.01 69 1013.1
20260506111550 63 117 14.0 27.0 0.00 0.01 0.01 69 1013.2
20260506111031 64 109 14.0 27.0 0.00 0.01 0.01 68 1013.0
20260506110532 64 128 10.0 24.0 0.00 0.01 0.01 69 1013.2
20260506110041 64 124 13.0 26.0 0.00 0.01 0.01 69 1013.2
20260506105531 63 128 14.0 31.0 0.00 0.01 0.01 69 1013.2
20260506105030 63 119 17.0 31.0 0.00 0.01 0.01 69 1013.2
20260506104549 64 119 14.0 26.0 0.00 0.01 0.01 70 1013.1
20260506104031 64 124 13.0 29.0 0.00 0.01 0.01 69 1013.1
20260506103531 64 134 18.0 29.0 0.00 0.01 0.01 68 1013.1
20260506103049 64 109 10.0 23.0 0.00 0.01 0.01 68 1013.1
20260506102532 64 98 9.0 23.0 0.00 0.01 0.01 67 1013.3
20260506102031 64 121 15.0 25.0 0.00 0.01 0.01 65 1013.2
20260506101549 64 123 16.0 25.0 0.00 0.01 0.01 64 1013.2
20260506101033 64 113 12.0 30.0 0.00 0.01 0.01 64 1013.1
20260506100531 64 119 15.0 30.0 0.00 0.01 0.01 62 1012.9
20260506100047 64 126 15.0 29.0 0.00 0.01 0.01 62 1013.0
20260506095531 65 117 15.0 32.0 0.00 0.01 0.01 62 1012.9
20260506095033 65 115 13.0 32.0 0.00 0.01 0.01 60 1012.9
20260506094548 65 136 17.0 32.0 0.00 0.01 0.01 59 1012.7
20260506094031 65 120 13.0 29.0 0.00 0.01 0.01 59 1012.5
20260506093531 65 126 13.0 28.0 0.00 0.01 0.01 61 1012.5
20260506093052 65 123 15.0 25.0 0.00 0.01 0.01 61 1012.5
20260506092531 64 113 13.0 23.0 0.00 0.01 0.01 62 1012.5
20260506092032 64 120 12.0 22.0 0.00 0.01 0.01 62 1012.7
20260506091549 64 121 11.0 25.0 0.00 0.01 0.01 65 1012.8
20260506091030 63 120 12.0 29.0 0.00 0.01 0.01 65 1012.9
20260506090531 63 104 14.0 29.0 0.00 0.01 0.01 65 1012.9
20260506090047 63 132 12.0 28.0 0.00 0.01 0.01 66 1012.9
20260506085530 62 134 13.0 28.0 0.00 0.01 0.01 68 1012.9
20260506085030 62 123 13.0 25.0 0.00 0.01 0.01 69 1012.8
20260506084547 62 109 13.0 24.0 0.00 0.01 0.01 70 1012.8
20260506084034 62 113 13.0 23.0 0.00 0.01 0.01 70 1012.8
20260506083532 61 101 10.0 19.0 0.00 0.01 0.01 73 1012.8
20260506083047 61 125 11.0 23.0 0.00 0.01 0.01 73 1012.9
20260506082531 61 115 12.0 23.0 0.00 0.01 0.01 74 1012.7
20260506082033 61 116 11.0 25.0 0.00 0.01 0.01 75 1012.8
20260506081551 61 109 14.0 25.0 0.00 0.01 0.01 75 1012.8
20260506081032 61 108 14.0 24.0 0.00 0.01 0.01 75 1012.7
20260506080532 61 103 12.0 22.0 0.00 0.01 0.01 75 1012.7
20260506073053 60 117 13.0 22.0 0.00 0.01 0.01 78 1012.8
20260506072532 59 128 10.0 22.0 0.00 0.01 0.01 79 1012.8
20260506072031 59 103 12.0 20.0 0.00 0.01 0.01 80 1012.9
20260506071552 58 121 10.0 18.0 0.00 0.01 0.01 82 1012.9
20260506071030 58 96 9.0 16.0 0.00 0.01 0.01 83 1012.9
20260506070530 58 98 12.0 16.0 0.00 0.01 0.01 82 1013.0
20260506070109 58 96 8.0 15.0 0.00 0.01 0.01 83 1012.9
20260506062034 57 97 8.0 16.0 0.00 0.01 0.01 86 1012.9
20260506061549 57 83 10.0 16.0 0.00 0.01 0.01 86 1012.8
20260506061034 57 109 10.0 15.0 0.00 0.01 0.01 85 1012.8
20260506060531 57 95 8.0 16.0 0.00 0.01 0.01 85 1012.9
20260506051035 57 98 7.0 13.0 0.00 0.02 0.01 84 1013.0
20260506050531 57 94 8.0 13.0 0.00 0.02 0.01 84 1013.0
20260506045031 57 88 5.0 12.0 0.00 0.03 0.01 85 1013.1
20260506044557 57 88 7.0 12.0 0.00 0.03 0.01 85 1013.0
20260506044031 57 89 7.0 16.0 0.00 0.03 0.01 85 1013.0
20260506043531 57 95 9.0 16.0 0.00 0.03 0.01 85 1013.0
20260506043049 57 102 11.0 16.0 0.00 0.03 0.01 85 1012.9
20260506042533 57 86 6.0 13.0 0.00 0.03 0.01 85 1012.8
20260506042032 57 61 6.0 10.0 0.00 0.03 0.01 85 1012.9
20260506041553 57 65 5.0 9.0 0.00 0.03 0.01 86 1013.0
20260506041032 57 90 4.0 9.0 0.00 0.03 0.01 86 1013.1
20260506040532 57 101 2.0 9.0 0.00 0.03 0.01 86 1013.0
20260506040100 57 76 5.0 10.0 0.00 0.03 0.01 86 1012.9
20260506035533 57 71 6.0 11.0 0.00 0.03 0.01 86 1013.0
20260506035032 57 87 6.0 12.0 0.00 0.03 0.01 86 1013.0
20260506034545 57 90 8.0 13.0 0.00 0.03 0.01 85 1013.0